Washington, VA

1:12 PM EST on December 16, 2017 (GMT -0500)
Ronald Reagan Washington National

Weather History for KDCA - February, 2013

Change the Weather History Date:

Friday, February 22, 2013

  Actual Average Record
Temperature  
Mean Temperature 33 °F 40 °F  
Max Temperature 35 °F 49 °F 77 °F (1874)
Min Temperature 31 °F 32 °F 9 °F (1963)
Degree Days  
Heating Degree Days 32 25  
Month to date heating degree days 613 585  
Since 1 July heating degree days 2686 2965  
Cooling Degree Days 0 0  
Month to date cooling degree days 0 0  
Year to date cooling degree days 0 0  
Moisture  
Dew Point 23 °F    
Average Humidity 65    
Maximum Humidity 82    
Minimum Humidity 47    
Precipitation  
Precipitation 0.06 in 0.09 in 2.27 in (2003)
Month to date precipitation 0.95 2.06  
Year to date precipitation 3.48 4.87  
Snow  
Snow T in 0.20 in 4.50 in (1894)
Month to date snowfall 0.4 4.8  
Since 1 July snowfall 1.5 13.2  
Snow Depth 0.00 in    
Sea Level Pressure  
Sea Level Pressure 30.32 in    
Wind  
Wind Speed 6 mph (SE)    
Max Wind Speed 17 mph    
Max Gust Speed 21 mph    
Visibility 9 miles    
Events Rain , Snow    
T = Trace of Precipitation, MM = Missing Value Source: NWS Daily Summary

Daily Weather History Graph

Daily Weather History Graph

Search for Another Location

Airport or City:

Trip Planner

Search our weather history database for the weather conditions in past years. The results will help you decide how hot, cold, wet, or windy it might be!

Date:

Astronomy

Feb. 22, 2013 Rise Set
Actual Time 6:50 AM EST 5:53 PM EST
Civil Twilight 6:23 AM EST 6:20 PM EST
Nautical Twilight 5:52 AM EST 6:51 PM EST
Astronomical Twilight 5:21 AM EST 7:22 PM EST
Moon 3:04 PM EST (2/22) 4:32 AM EST (2/22)
Length of Visible Light 11h 57m
Length of Day
11h 03m
Waxing Gibbous, 90% of the Moon is Illuminated
Feb 22
Waxing Gibbous
Feb 25
Full
Mar 4
Last Quarter
Mar 11
New
Mar 19
First Quarter

Hourly Weather History & Observations

Time (EST) Temp. Windchill Dew Point Humidity Pressure Visibility Wind Dir Wind Speed Gust Speed Precip Events Conditions
12:52 AM 34.0 °F 25.0 °F 15.1 °F 46% 30.34 in 10.0 mi NNE 12.7 mph - N/A   Overcast
1:52 AM 33.1 °F 24.9 °F 15.1 °F 48% 30.34 in 10.0 mi North 10.4 mph - N/A   Overcast
2:52 AM 32.0 °F 24.8 °F 16.0 °F 52% 30.35 in 10.0 mi NNW 8.1 mph - N/A   Overcast
3:52 AM 32.0 °F 24.8 °F 15.1 °F 50% 30.39 in 10.0 mi NNW 8.1 mph - N/A   Overcast
4:52 AM 32.0 °F 24.8 °F 16.0 °F 52% 30.39 in 10.0 mi NNW 8.1 mph - N/A   Overcast
5:52 AM 33.1 °F 26.1 °F 16.0 °F 50% 30.38 in 10.0 mi NE 8.1 mph - N/A   Overcast
6:52 AM 32.0 °F 24.8 °F 17.6 °F 55% 30.39 in 10.0 mi NNE 8.1 mph - N/A   Overcast
7:52 AM 32.0 °F 24.8 °F 17.1 °F 54% 30.40 in 10.0 mi NE 8.1 mph - N/A   Overcast
8:52 AM 33.1 °F 26.1 °F 18.0 °F 54% 30.38 in 10.0 mi East 8.1 mph - N/A   Overcast
9:52 AM 33.1 °F 26.1 °F 19.0 °F 56% 30.36 in 10.0 mi ENE 8.1 mph - N/A   Overcast
10:52 AM 34.0 °F 26.6 °F 19.0 °F 54% 30.35 in 10.0 mi ESE 9.2 mph - N/A   Overcast
11:32 AM 33.8 °F 28.6 °F 19.4 °F 56% 30.36 in 10.0 mi SE 5.8 mph - 0.00 in Snow Light Snow
11:52 AM 34.0 °F 28.8 °F 21.0 °F 59% 30.36 in 5.0 mi South 5.8 mph - 0.00 in Snow Light Snow
12:15 PM 33.8 °F 28.6 °F 21.2 °F 60% 30.35 in 10.0 mi South 5.8 mph - 0.00 in   Overcast
12:24 PM 33.8 °F 30.8 °F 21.2 °F 60% 30.35 in 10.0 mi South 3.5 mph - 0.00 in Rain , Snow Light Rain
12:32 PM 33.8 °F 29.6 °F 21.2 °F 60% 30.34 in 10.0 mi South 4.6 mph - 0.00 in Rain , Snow Light Rain
12:39 PM 33.8 °F - 21.2 °F 60% 30.34 in 8.0 mi Calm Calm - 0.00 in Rain Light Rain
12:52 PM 33.1 °F - 23.0 °F 66% 30.33 in 10.0 mi Calm Calm - 0.00 in Rain Light Rain
1:52 PM 33.1 °F 30.0 °F 25.0 °F 72% 30.33 in 4.0 mi SW 3.5 mph - 0.03 in Rain Light Rain
2:09 PM 33.8 °F 29.6 °F 26.6 °F 75% 30.32 in 10.0 mi South 4.6 mph - 0.00 in Rain Light Rain
2:44 PM 33.8 °F 30.8 °F 26.6 °F 75% 30.31 in 6.0 mi SE 3.5 mph - 0.00 in Rain Light Rain
2:52 PM 33.1 °F 27.7 °F 27.0 °F 78% 30.31 in 8.0 mi SSE 5.8 mph - 0.01 in Rain Light Rain
3:43 PM 33.8 °F 30.8 °F 26.6 °F 75% 30.30 in 10.0 mi South 3.5 mph - 0.00 in   Overcast
3:52 PM 33.1 °F 30.0 °F 27.0 °F 78% 30.31 in 10.0 mi South 3.5 mph - 0.00 in   Overcast
4:33 PM 33.8 °F 30.8 °F 26.6 °F 75% 30.30 in 10.0 mi SE 3.5 mph - 0.00 in Rain Light Rain
4:52 PM 34.0 °F 31.0 °F 26.1 °F 73% 30.30 in 10.0 mi SE 3.5 mph - 0.00 in   Overcast
5:00 PM 33.8 °F 29.6 °F 26.6 °F 75% 30.29 in 10.0 mi East 4.6 mph - N/A   Overcast
5:52 PM 33.1 °F 28.7 °F 27.0 °F 78% 30.29 in 8.0 mi SSE 4.6 mph - 0.01 in Rain Light Rain
6:52 PM 34.0 °F 28.8 °F 27.0 °F 75% 30.29 in 10.0 mi SE 5.8 mph - 0.00 in   Overcast
7:52 PM 34.0 °F 31.0 °F 28.0 °F 79% 30.29 in 10.0 mi ESE 3.5 mph - N/A   Overcast
8:52 PM 34.0 °F 31.0 °F 28.0 °F 79% 30.28 in 10.0 mi ESE 3.5 mph - N/A   Overcast
9:52 PM 34.0 °F 31.0 °F 28.9 °F 82% 30.27 in 10.0 mi SSE 3.5 mph - N/A   Overcast
10:00 PM 33.8 °F 29.6 °F 28.4 °F 81% 30.27 in 10.0 mi SE 4.6 mph - N/A   Overcast
10:41 PM 33.8 °F 29.6 °F 30.2 °F 87% 30.26 in 6.0 mi SE 4.6 mph - 0.00 in   Light Drizzle
10:52 PM 34.0 °F 31.0 °F 30.0 °F 85% 30.25 in 5.0 mi SE 3.5 mph - 0.00 in   Light Drizzle
11:21 PM 33.8 °F - 30.2 °F 87% 30.25 in 4.0 mi Calm Calm - 0.00 in Rain Light Rain
11:43 PM 33.8 °F - 30.2 °F 87% 30.24 in 4.0 mi Calm Calm - 0.01 in   Light Drizzle
11:52 PM 34.0 °F - 30.9 °F 89% 30.24 in 5.0 mi Calm Calm - 0.01 in   Light Drizzle